San Juan, PR

2:29 AM AST on October 19, 2017 (GMT -0400)
Luis Munoz Marin International

Weather History for TJSJ - April, 2014

Change the Weather History Date:

Saturday, April 5, 2014

  Actual Average Record
Temperature  
Mean Temperature 81 °F 80 °F  
Max Temperature 86 °F 86 °F 93 °F (1984)
Min Temperature 76 °F 74 °F 67 °F (1935)
Degree Days  
Heating Degree Days 0 0  
Month to date heating degree days 0 0  
Since 1 July heating degree days 0 0  
Cooling Degree Days 16 15  
Month to date cooling degree days 83 75  
Year to date cooling degree days 1449 1257  
Growing Degree Days 30 (Base 50)    
Moisture  
Dew Point 69 °F    
Average Humidity 71    
Maximum Humidity 87    
Minimum Humidity 55    
Precipitation  
Precipitation 0.19 in 0.11 in 3.08 in (1912)
Month to date precipitation 1.09 0.51  
Year to date precipitation 7.64 8.61  
Sea Level Pressure  
Sea Level Pressure 30.05 in    
Wind  
Wind Speed 13 mph (East)    
Max Wind Speed 28 mph    
Max Gust Speed 32 mph    
Visibility 10 miles    
Events Rain    
T = Trace of Precipitation, MM = Missing Value Source: NWS Daily Summary

Daily Weather History Graph

Daily Weather History Graph

Search for Another Location

Airport or City:

Trip Planner

Search our weather history database for the weather conditions in past years. The results will help you decide how hot, cold, wet, or windy it might be!

Date:

Astronomy

Apr. 05, 2014 Rise Set
Actual Time 6:14 AM AST 6:38 PM AST
Civil Twilight 5:53 AM AST 7:00 PM AST
Nautical Twilight 5:27 AM AST 7:26 PM AST
Astronomical Twilight 5:01 AM AST 7:52 PM AST
Moon 10:48 AM AST (4/5) No Moon Set
Length of Visible Light 13h 07m
Length of Day
12h 23m
Waxing Crescent, 34% of the Moon is Illuminated
Apr 5
Waxing Crescent
Apr 7
First Quarter
Apr 15
Full
Apr 22
Last Quarter
Apr 29
New

Hourly Weather History & Observations

Time (AST) Temp. Heat Index Dew Point Humidity Pressure Visibility Wind Dir Wind Speed Gust Speed Precip Events Conditions
12:56 AM 77.0 °F - 71.1 °F 82% 30.04 in 8.0 mi ESE 6.9 mph - 0.05 in Rain Light Rain
1:56 AM 75.9 °F - 71.1 °F 85% 30.03 in 10.0 mi East 5.8 mph - 0.05 in   Mostly Cloudy
2:56 AM 77.0 °F - 71.1 °F 82% 30.01 in 8.0 mi SE 4.6 mph - 0.00 in Rain Light Rain
3:56 AM 75.9 °F - 72.0 °F 87% 30.00 in 9.0 mi ESE 4.6 mph - 0.08 in Rain Light Rain
4:56 AM 77.0 °F - 70.0 °F 79% 30.01 in 10.0 mi SE 4.6 mph - 0.01 in   Mostly Cloudy
5:56 AM 78.1 °F - 69.1 °F 74% 30.03 in 10.0 mi East 11.5 mph - N/A   Mostly Cloudy
6:56 AM 78.1 °F - 68.0 °F 71% 30.05 in 10.0 mi East 8.1 mph - N/A   Scattered Clouds
7:56 AM 80.1 °F 82.7 °F 68.0 °F 67% 30.07 in 10.0 mi East 12.7 mph - N/A   Scattered Clouds
8:56 AM 82.0 °F 84.9 °F 68.0 °F 62% 30.08 in 10.0 mi East 17.3 mph - N/A   Scattered Clouds
9:56 AM 82.9 °F 85.8 °F 68.0 °F 60% 30.08 in 10.0 mi ENE 16.1 mph 24.2 mph N/A   Scattered Clouds
10:56 AM 84.0 °F 87.8 °F 69.1 °F 61% 30.08 in 10.0 mi ENE 18.4 mph - N/A   Scattered Clouds
11:56 AM 84.9 °F 88.8 °F 69.1 °F 59% 30.08 in 10.0 mi ENE 18.4 mph 28.8 mph N/A   Scattered Clouds
12:56 PM 84.9 °F 88.2 °F 68.0 °F 57% 30.07 in 10.0 mi ENE 24.2 mph 29.9 mph N/A   Scattered Clouds
1:56 PM 84.0 °F 87.0 °F 68.0 °F 58% 30.06 in 10.0 mi East 23.0 mph - N/A   Scattered Clouds
2:56 PM 84.9 °F 87.6 °F 66.9 °F 55% 30.04 in 10.0 mi East 24.2 mph 31.1 mph N/A   Scattered Clouds
3:56 PM 84.9 °F 88.2 °F 68.0 °F 57% 30.01 in 10.0 mi East 20.7 mph 26.5 mph N/A   Scattered Clouds
4:56 PM 84.0 °F 87.0 °F 68.0 °F 58% 30.00 in 10.0 mi East 19.6 mph 24.2 mph N/A   Scattered Clouds
5:56 PM 82.0 °F 84.9 °F 68.0 °F 62% 30.01 in 10.0 mi East 13.8 mph 23.0 mph N/A   Scattered Clouds
6:56 PM 81.0 °F 84.4 °F 70.0 °F 69% 30.04 in 9.0 mi East 11.5 mph - 0.00 in Rain Light Rain
7:56 PM 79.0 °F - 70.0 °F 74% 30.05 in 10.0 mi East 6.9 mph - 0.00 in   Scattered Clouds
8:56 PM 79.0 °F - 70.0 °F 74% 30.06 in 10.0 mi East 8.1 mph - N/A   Scattered Clouds
9:56 PM 79.0 °F - 69.1 °F 72% 30.08 in 10.0 mi East 9.2 mph - N/A   Partly Cloudy
10:56 PM 79.0 °F - 69.1 °F 72% 30.08 in 10.0 mi East 15.0 mph - N/A   Scattered Clouds
11:56 PM 80.1 °F 82.9 °F 69.1 °F 69% 30.08 in 10.0 mi ENE 16.1 mph - N/A   Scattered Clouds